This is the latest recevied weather packets stored in our database for station/object DH9NFM-12. If no packets are shown the sender has not sent any weather packets the latest 10 day(s).
| Time | Temp. | Humidity | Pressure | Rain* | Wind** | Luminosity | Snow |
|---|---|---|---|---|---|---|---|
| 1777029868 | 15.56° C | 47% | 1017.6 hPa | 0 mm | - | - | - |
| 1777029243 | 14.44° C | 50% | 1017.9 hPa | 0 mm | - | - | - |
| 1777028619 | 15° C | 47% | 1017.7 hPa | 0 mm | - | - | - |
| 1777027994 | 14.44° C | 46% | 1017.8 hPa | 0 mm | - | - | - |
| 1777027369 | 14.44° C | 47% | 1017.8 hPa | 0 mm | - | - | - |
| 1777026745 | 13.89° C | 47% | 1017.8 hPa | 0 mm | - | - | - |
| 1777026120 | 13.33° C | 46% | 1017.7 hPa | 0 mm | - | - | - |
| 1777025495 | 12.78° C | 47% | 1017.9 hPa | 0 mm | - | - | - |
| 1777024871 | 13.33° C | 49% | 1017.8 hPa | 0 mm | - | - | - |
| 1777024246 | 12.22° C | 48% | 1017.9 hPa | 0 mm | - | - | - |
| 1777023621 | 12.78° C | 49% | 1017.9 hPa | 0 mm | - | - | - |
| 1777022997 | 13.33° C | 51% | 1017.9 hPa | 0 mm | - | - | - |
| 1777022372 | 12.22° C | 59% | 1018 hPa | 0 mm | - | - | - |
| 1777021747 | 12.78° C | 64% | 1018 hPa | 0 mm | - | - | - |
| 1777021123 | 12.22° C | 61% | 1017.9 hPa | 0 mm | - | - | - |
| 1777020498 | 12.22° C | 65% | 1018 hPa | 0 mm | - | - | - |
| 1777019873 | 12.22° C | 62% | 1018 hPa | 0 mm | - | - | - |
| 1777019249 | 11.67° C | 60% | 1018 hPa | 0 mm | - | - | - |
| 1777018624 | 10° C | 60% | 1018 hPa | 0 mm | - | - | - |
| 1777018000 | 10.56° C | 58% | 1018 hPa | 0 mm | - | - | - |
| 1777017375 | 10.56° C | 60% | 1018 hPa | 0 mm | - | - | - |
| 1777016750 | 10.56° C | 61% | 1018 hPa | 0 mm | - | - | - |
| 1777016126 | 10.56° C | 61% | 1018 hPa | 0 mm | - | - | - |
| 1777015501 | 10.56° C | 66% | 1018 hPa | 0 mm | - | - | - |
| 1777014876 | 10° C | 67% | 1018 hPa | 0 mm | - | - | - |
* Rain latest hour (hover to see other rain measurements)
** Current wind speed in m/s (hover to see current wind gust speed)